User: anonymous   Login
Location: Lansingburgh
(42.7845°N, 73.6696°W)
Time: 12:40:39
(UTC+00:00)
Language:

Cosmos 1340 Rocket - Orbit

View from above orbital plane
View from above orbital plane
View from above satellite
View from above satellite

Ground track
Ground track

The orbit data is extracted from the following two-line orbital elements,

1 13068U 82013B   20098.86547532 -.00000341 +00000-0 -23997-4 0  9995
2 13068 081.2010 131.0611 0022671 165.6977 194.4894 15.07410804077737
Epoch (UTC): 07 April 2020 20:46:17
Eccentricity: 0.0022671
inclination: 81.2010°
perigee height: 528 km
apogee height: 560 km
right ascension of ascending node: 131.0611°
argument of perigee: 165.6977°
revolutions per day: 15.07410804
mean anomaly at epoch: 194.4894°
orbit number at epoch: 7773

The dashed part of the orbit path shows where the satellite is in the earth's shadow,  

DLR